Temp
2 1 0 1 1 1 1 1 1 2 2 2 3 4 4 4 5 5 6 6 7 7 8 8 8 8 9 8 8 8 7 7 6 6 6 6 6 5 5 5 4 3 2 2
0 0 1 1 1 0 0 0 1 1 1 2 2 3 3 4 4 5 6 6 6 7 7 8 8 8 9 9 8 8 8 7 6 6 6 6 6 6 5 5 4 4 1 2
0 0 1 0 0 -0 -0 -0 0 0 1 1 1 2 3 4 5 5 6 6 6 7 7 8 8 9 9 9 9 8 8 7 6 6 6 6 6 6 5 5 4 4 2 2
-0 0 0 -0 -0 -1 -1 -0 -0 -0 -1 -1 -0 -0 2 4 5 4 6 6 7 7 7 8 9 9 9 9 9 8 8 7 6 6 6 6 6 6 5 5 4 4 3 2
-0 -0 -0 -0 -0 -1 -1 -1 -1 -1 -1 -1 -2 -1 2 2 3 5 6 6 7 7 7 7 9 9 9 9 9 8 8 7 7 6 6 6 6 6 5 5 5 4 4 3
-1 -1 -1 -1 -1 -1 -1 -1 -1 -1 -2 -3 -1 -1 -0 3 3 4 4 5 7 7 7 7 9 9 8 8 8 8 8 7 7 6 6 6 6 6 6 5 5 4 4 4
-2 -2 -1 -1 -1 -1 -1 -2 -4 -3 -2 -2 1 -1 -0 3 2 2 4 5 4 6 7 7 8 8 8 9 9 8 8 7 7 6 6 6 6 6 5 5 5 3 3 3
-2 -2 -1 -1 -1 -1 -2 -2 -3 -2 -1 -1 1 -0 2 1 2 3 4 5 5 5 7 7 8 8 8 8 8 9 8 8 7 6 6 6 6 6 6 6 5 3 2 3
-2 -1 -1 -1 -1 -1 -2 -3 -2 -3 -1 -2 1 1 2 2 2 3 3 4 5 6 7 7 8 8 9 9 9 9 8 7 7 6 6 6 6 6 5 6 5 5 4 3
-1 -2 -2 -2 -2 -2 -2 -2 -3 -3 -2 -2 0 1 2 2 2 2 4 5 5 7 7 8 8 9 9 9 9 9 8 7 6 6 6 6 6 6 6 5 5 5 4 4
-1 -1 -2 -2 -2 -1 -2 -3 -3 -3 -2 -1 -1 0 -0 0 0 1 1 3 5 7 8 8 8 9 10 9 9 8 7 7 6 6 6 6 6 6 5 5 5 5 5 4
-2 -2 -2 -2 -2 -2 -2 -3 -3 -3 -2 -2 -2 -0 0 1 1 0 0 3 4 6 8 8 9 10 9 9 9 7 6 6 5 5 5 6 5 6 5 5 5 5 5 4
-3 -3 -3 -3 -3 -3 -3 -3 -3 -3 -3 -3 -3 -0 0 1 1 1 1 1 3 4 6 8 9 9 9 9 7 6 6 5 4 4 5 5 5 5 5 5 4 4 4 4
-3 -3 -3 -4 -3 -4 -3 -3 -3 -3 -3 -3 -2 -1 -1 -1 0 1 1 1 1 3 4 6 8 8 8 7 7 6 5 4 4 4 4 5 5 5 5 5 4 4 4 4
-3 -4 -3 -3 -3 -3 -3 -2 -3 -3 -3 -3 -2 -2 -1 -1 -1 0 0 -1 0 0 3 4 5 6 7 7 6 5 4 4 4 4 4 4 5 5 5 5 5 4 4 4
-4 -4 -4 -4 -4 -4 -4 -3 -3 -2 -2 -2 -3 -2 -2 -2 -1 -0 -0 -1 -0 -1 -0 1 2 4 4 4 4 3 3 2 2 3 4 4 4 4 4 4 4 4 4 4
-4 -4 -4 -4 -4 -4 -3 -3 -3 -2 -1 -2 -3 -1 -2 -2 -1 -1 -1 -1 -1 -1 -1 -1 0 1 2 2 1 1 2 2 3 3 4 4 4 4 4 4 4 3 3 3
-5 -5 -5 -5 -5 -6 -3 -3 -3 -3 -2 -2 -2 -1 -2 -1 -1 -1 -1 -1 -1 -1 -1 -1 -2 -2 -2 -1 -1 1 1 3 3 4 4 4 4 4 4 4 3 3 3 3
-5 -5 -5 -5 -5 -5 -3 -4 -3 -4 -1 -1 -2 -2 -2 -2 -2 -2 -2 -2 -2 -2 -2 -2 -2 -3 -3 -1 0 1 1 2 3 3 4 4 4 4 4 3 3 3 3 3
-4 -5 -6 -6 -6 -7 -3 -3 -3 -3 -3 -2 -2 -2 -3 -3 -2 -2 -3 -2 -2 -2 -3 -3 -3 -3 -3 -1 -0 0 0 1 1 2 2 2 2 2 3 3 3 3 3 3
-5 -5 -6 -6 -6 -6 -4 -4 -3 -4 -3 -3 -3 -2 -3 -3 -3 -3 -3 -2 -2 -2 -2 -2 -2 -2 -1 -1 -0 -0 0 0 1 1 1 1 0 1 1 1 2 2 2 2
-6 -6 -6 -7 -7 -7 -5 -5 -4 -4 -3 -3 -3 -3 -3 -3 -3 -3 -3 -3 -3 -3 -3 -2 -2 -1 -1 -1 -1 -0 -0 0 0 0 0 0 0 0 0 0 0 1 1 1
-6 -6 -6 -6 -6 -6 -5 -5 -6 -5 -5 -4 -4 -3 -4 -3 -4 -4 -5 -5 -4 -3 -3 -2 -2 -1 -1 -1 -1 -1 -1 -1 -0 -0 -0 0 0 -0 -0 -0 -0 -0 -0 0
-7 -6 -7 -7 -6 -6 -6 -6 -6 -5 -5 -5 -4 -4 -4 -4 -5 -5 -4 -4 -5 -3 -3 -3 -2 -2 -1 -1 -1 -1 -1 -1 -1 -1 -1 -1 -1 -1 -1 -0 -0 -1 -1 -1
-7 -7 -6 -7 -7 -7 -6 -6 -5 -6 -5 -5 -5 -5 -5 -5 -5 -6 -5 -4 -4 -4 -3 -3 -3 -3 -3 -3 -2 -2 -2 -2 -2 -2 -2 -2 -2 -2 -2 -2 -2 -2 -2 -2
-7 -7 -7 -7 -7 -7 -7 -6 -6 -6 -6 -6 -6 -6 -6 -6 -6 -6 -5 -5 -4 -4 -4 -4 -4 -3 -3 -3 -3 -3 -3 -3 -3 -2 -3 -3 -3 -2 -2 -3 -2 -2 -2 -2
Height
3020 3022 3018 3025 3031 3035 3037 3038 3036 3039 3042 3040 3036 3027 3032 3037 3036 3036 3039 3042 3046 3050 3055 3055 3057 3060 3063 3066 3069 3072 3073 3074 3072 3071 3071 3069 3067 3065 3064 3064 3064 3064 3067 3071
3017 3011 3020 3025 3028 3031 3032 3033 3032 3034 3036 3036 3031 3015 3022 3026 3026 3029 3030 3032 3036 3040 3044 3048 3049 3052 3056 3059 3062 3065 3068 3070 3069 3068 3067 3065 3063 3062 3060 3059 3060 3060 3063 3066
3011 3013 3016 3019 3022 3025 3026 3028 3029 3029 3031 3029 3027 3007 3008 3016 3017 3018 3019 3021 3025 3030 3034 3039 3041 3045 3048 3052 3056 3059 3063 3065 3065 3064 3063 3062 3060 3059 3057 3056 3056 3057 3058 3063
3009 3011 3013 3016 3018 3021 3022 3024 3024 3025 3028 3026 3026 3006 3001 3005 3003 3007 3010 3013 3016 3020 3026 3030 3033 3037 3041 3046 3050 3053 3057 3060 3061 3060 3059 3058 3057 3056 3054 3053 3052 3053 3054 3058
3005 3005 3009 3012 3015 3017 3019 3020 3020 3023 3023 3022 3021 3025 2990 3000 2996 2999 3000 2999 3004 3009 3016 3021 3026 3030 3035 3038 3044 3047 3051 3055 3056 3056 3056 3054 3054 3053 3051 3050 3049 3049 3051 3053
3003 3004 3008 3010 3012 3014 3015 3016 3017 3018 3018 3016 3014 3018 2989 2994 2990 2991 2991 2991 2993 2998 3008 3013 3018 3022 3027 3031 3036 3041 3045 3049 3052 3052 3052 3051 3051 3050 3048 3047 3046 3045 3047 3049
2998 3001 3005 3008 3010 3010 3012 3013 3016 3018 3017 3011 3008 3009 2994 2991 2991 2990 2985 2984 2987 2992 3001 3007 3010 3015 3021 3024 3028 3033 3039 3043 3047 3048 3048 3048 3048 3047 3046 3044 3043 3041 3043 3046
2995 3001 3002 3004 3006 3008 3009 3011 3014 3014 3012 3009 3007 3001 2992 2990 2987 2984 2981 2979 2979 2983 2990 2998 3002 3008 3013 3018 3022 3026 3032 3038 3042 3044 3045 3045 3045 3045 3044 3042 3040 3039 3040 3042
2992 2996 2998 3002 3004 3006 3007 3009 3013 3014 3010 3011 3001 2994 2991 2988 2985 2981 2978 2976 2975 2976 2981 2990 2996 3002 3006 3011 3015 3020 3026 3033 3037 3040 3041 3042 3042 3043 3043 3041 3039 3038 3039 3042
2989 2994 2998 3000 3002 3004 3006 3009 3010 3012 3008 3003 2992 2990 2985 2984 2981 2978 2974 2970 2969 2971 2977 2984 2991 2996 3000 3005 3008 3015 3021 3028 3033 3036 3037 3038 3039 3040 3042 3041 3040 3038 3039 3041
2989 2991 2998 2999 3001 3002 3006 3007 3009 3009 3007 2999 2994 2987 2985 2983 2981 2978 2973 2969 2965 2966 2973 2978 2984 2991 2995 2999 3004 3011 3017 3023 3028 3031 3033 3035 3036 3038 3039 3040 3040 3040 3039 3041
2987 2991 2995 2999 3000 3002 3004 3005 3007 3006 3005 3000 2997 2988 2985 2984 2983 2977 2972 2969 2967 2964 2968 2972 2977 2984 2991 2994 3000 3006 3012 3018 3023 3026 3028 3031 3033 3034 3036 3037 3038 3038 3039 3040
2988 2992 2995 2998 3001 3002 3002 3004 3003 3002 3002 2997 2997 2988 2984 2984 2983 2981 2976 2970 2966 2964 2964 2967 2973 2977 2983 2990 2996 3002 3008 3014 3018 3021 3023 3026 3028 3030 3032 3033 3034 3036 3037 3038
2988 2991 2995 2998 3001 3002 3001 3001 3001 3001 2999 2995 2991 2984 2983 2980 2980 2979 2980 2973 2970 2967 2965 2966 2970 2976 2981 2986 2993 2999 3005 3009 3012 3015 3018 3021 3023 3025 3027 3029 3031 3032 3034 3035
2989 2992 2994 2996 2998 2998 2997 2996 2997 2997 2995 2993 2985 2982 2979 2977 2977 2977 2976 2978 2972 2968 2965 2966 2969 2973 2979 2984 2991 2997 3001 3005 3009 3011 3013 3015 3018 3020 3022 3025 3027 3029 3030 3032
2989 2992 2994 2995 2996 2996 2993 2993 2993 2990 2988 2985 2983 2979 2976 2974 2974 2975 2975 2975 2973 2970 2968 2969 2970 2973 2978 2984 2989 2994 2997 3000 3004 3008 3010 3011 3013 3016 3019 3021 3023 3025 3027 3028
2990 2991 2992 2993 2993 2992 2989 2988 2989 2987 2984 2982 2979 2976 2972 2970 2971 2972 2973 2972 2972 2969 2967 2968 2970 2976 2979 2983 2986 2989 2991 2996 3001 3005 3007 3008 3010 3012 3014 3017 3019 3021 3022 3023
2987 2989 2991 2991 2991 2991 2986 2985 2985 2984 2982 2979 2976 2972 2969 2967 2968 2970 2970 2971 2971 2971 2969 2971 2974 2975 2980 2986 2988 2988 2992 2996 2997 2999 3001 3003 3004 3006 3009 3011 3013 3014 3015 3018
2985 2988 2990 2990 2990 2988 2982 2982 2983 2982 2979 2977 2974 2971 2968 2969 2967 2968 2968 2969 2970 2970 2972 2973 2974 2976 2981 2988 2989 2988 2991 2992 2993 2994 2996 2998 2999 3000 3002 3003 3005 3007 3008 3008
2986 2987 2991 2991 2992 2990 2983 2983 2981 2981 2976 2974 2973 2973 2971 2967 2968 2968 2968 2969 2972 2974 2974 2976 2977 2980 2984 2989 2987 2987 2990 2991 2990 2990 2991 2993 2994 2995 2995 2996 2997 2998 2999 3000
2986 2987 2988 2989 2990 2986 2981 2979 2979 2981 2980 2974 2974 2974 2972 2969 2970 2969 2969 2970 2972 2975 2979 2978 2981 2983 2985 2986 2986 2987 2989 2989 2988 2986 2986 2987 2988 2989 2990 2990 2990 2991 2991 2991
2988 2988 2988 2987 2987 2983 2978 2978 2979 2978 2974 2973 2973 2973 2972 2969 2971 2971 2970 2969 2971 2974 2977 2979 2981 2982 2982 2983 2984 2985 2985 2984 2983 2982 2982 2982 2982 2983 2984 2985 2984 2984 2985 2984
2987 2987 2988 2988 2982 2978 2977 2977 2976 2975 2974 2973 2972 2971 2967 2970 2970 2969 2968 2971 2974 2976 2977 2978 2978 2979 2980 2981 2981 2981 2980 2980 2979 2978 2978 2977 2977 2977 2976 2977 2977 2977 2978 2977
2984 2984 2983 2981 2977 2976 2975 2976 2975 2975 2974 2973 2973 2972 2970 2969 2968 2969 2971 2973 2974 2975 2975 2976 2976 2976 2976 2976 2975 2975 2975 2974 2973 2972 2972 2972 2972 2972 2972 2971 2970 2970 2970 2970
2982 2981 2978 2977 2975 2973 2973 2974 2973 2973 2972 2972 2971 2970 2969 2969 2969 2968 2968 2970 2971 2971 2971 2971 2970 2970 2971 2971 2970 2969 2969 2968 2967 2967 2966 2966 2966 2966 2965 2964 2963 2963 2963 2961
2977 2976 2976 2974 2974 2973 2973 2972 2972 2972 2970 2970 2969 2967 2968 2967 2967 2967 2969 2968 2968 2968 2968 2967 2965 2965 2965 2964 2963 2963 2962 2962 2961 2961 2960 2959 2958 2957 2958 2956 2955 2954 2954 2953
Wind_Speed
30 32 38 37 36 35 32 27 27 25 18 23 32 44 40 37 40 44 44 41 40 37 35 35 34 34 31 29 25 21 21 19 17 16 16 17 17 18 19 18 18 27 27 27
27 36 31 29 29 30 29 28 29 29 30 31 37 52 47 44 45 45 44 43 42 39 40 36 34 34 31 26 25 25 20 20 17 14 16 16 16 16 17 16 15 20 25 29
26 16 18 26 26 28 28 26 25 26 26 30 35 55 53 48 48 48 47 47 43 39 36 34 32 33 33 26 25 24 21 19 18 14 15 16 14 14 14 14 15 15 26 26
18 22 17 12 13 21 23 20 19 19 17 11 12 22 45 43 45 44 45 48 43 39 34 30 29 33 28 23 25 23 22 21 19 15 14 16 14 13 13 14 13 14 18 34
12 12 22 21 17 12 11 14 16 17 18 20 16 12 30 20 36 39 34 31 39 40 37 27 30 28 24 23 21 22 21 21 18 15 14 15 12 12 12 14 13 15 18 23
20 9 9 10 8 9 9 10 13 15 10 7 18 21 25 17 18 16 18 16 25 31 33 23 31 29 27 23 25 27 23 21 18 15 13 15 12 10 10 13 14 14 13 19
21 20 17 14 11 10 9 8 5 4 3 5 7 15 33 32 24 29 23 17 11 17 32 26 31 29 25 23 22 24 28 22 19 15 13 14 12 9 9 12 14 14 12 14
15 6 19 10 10 4 1 4 5 4 3 3 5 9 8 6 12 18 26 19 19 20 33 34 32 31 28 26 23 25 25 23 19 15 13 12 10 8 8 11 13 10 11 11
11 5 13 7 3 2 2 3 8 7 22 7 9 15 18 19 12 13 17 18 20 21 30 35 36 30 32 27 24 26 25 25 18 17 14 12 10 7 6 8 9 7 7 12
8 8 8 4 4 4 3 4 2 8 3 4 6 9 9 9 4 6 9 16 21 26 30 36 40 34 32 25 20 24 23 24 18 16 15 13 12 9 5 5 6 4 6 10
7 4 5 4 4 1 5 5 3 6 7 3 3 3 5 5 9 12 17 10 11 26 32 25 28 27 30 25 25 26 25 24 22 19 18 14 13 11 8 4 2 1 3 7
9 4 3 2 7 4 6 7 10 5 5 8 9 7 12 10 7 10 19 16 6 5 17 17 19 24 30 28 26 28 24 21 22 20 19 16 14 14 12 8 6 4 4 5
10 5 6 6 7 5 3 7 11 9 11 10 3 8 15 11 9 16 10 20 12 12 6 17 20 30 31 26 29 28 25 23 20 17 18 19 19 17 16 13 11 9 8 7
9 7 6 3 3 5 8 11 13 13 7 10 16 27 23 23 22 17 12 17 16 9 3 11 26 26 27 32 30 28 26 24 22 18 16 17 21 20 19 18 16 15 14 13
8 6 4 3 7 8 9 12 16 19 24 20 23 24 19 12 16 10 13 15 10 19 11 8 11 18 25 30 28 25 22 21 19 16 16 15 16 21 21 20 19 18 19 18
5 3 5 11 9 7 15 18 9 13 14 24 23 23 15 20 13 11 7 7 9 19 24 22 19 12 13 24 21 19 19 16 18 14 13 10 10 12 15 18 18 18 20 21
3 4 7 5 7 13 16 4 12 15 12 18 20 27 20 10 13 10 12 9 9 8 13 17 20 14 14 18 16 16 21 17 23 19 17 16 15 17 12 13 14 13 13 14
10 8 5 5 8 2 2 10 12 12 12 14 19 12 12 12 16 15 20 13 11 6 4 7 9 18 14 6 6 9 11 13 13 12 14 17 19 21 24 31 30 25 25 28
10 8 3 2 3 14 7 6 3 20 14 16 16 10 10 4 12 12 10 11 9 7 8 10 11 14 14 5 4 3 2 5 9 15 18 20 21 21 21 24 31 34 35 32
6 6 8 5 2 3 5 10 6 19 13 6 11 12 8 5 13 7 2 15 8 7 14 11 10 8 6 6 6 4 4 5 6 6 8 11 14 18 22 25 26 27 28 32
6 4 11 16 8 9 17 18 19 8 8 11 8 10 13 7 3 11 4 5 11 9 5 4 4 4 3 8 9 8 9 10 11 11 12 12 12 13 15 18 20 23 26 28
3 4 4 5 6 8 8 11 8 10 14 15 12 11 17 11 10 11 6 5 2 2 2 2 4 7 10 12 12 14 14 13 13 14 17 18 19 18 17 18 19 21 24 26
3 2 9 10 7 15 17 14 8 6 12 12 12 13 10 9 7 3 4 4 2 2 6 9 10 13 14 15 16 18 17 16 15 15 17 17 19 20 21 20 19 18 19 20
5 12 9 13 7 12 12 10 9 8 11 14 15 17 11 13 8 2 4 4 6 11 13 14 15 16 17 19 19 19 19 19 18 18 18 18 19 20 20 21 21 21 21 22
15 12 8 1 8 9 11 10 10 12 15 19 19 11 10 14 16 11 8 10 12 15 16 16 14 14 16 17 17 17 17 16 16 16 17 18 19 19 19 21 21 21 21 23
11 9 8 6 10 9 7 8 7 8 8 10 14 10 9 6 5 5 11 12 13 13 15 14 14 16 17 17 18 18 18 18 18 18 18 19 20 21 20 21 22 23 23 22
Wind_Direction
222 216 223 231 240 249 254 257 265 266 268 269 270 271 267 267 264 264 263 263 261 255 253 249 255 243 234 246 253 253 260 273 272 284 292 291 297 296 292 282 263 248 231 229
217 228 233 241 246 249 252 259 263 271 270 271 277 274 272 270 267 264 265 262 261 262 256 258 248 238 236 238 249 248 251 264 271 281 295 297 299 300 293 282 272 253 226 222
220 230 235 240 243 245 248 251 260 272 282 275 283 279 277 271 269 264 261 260 259 256 255 251 244 232 231 238 231 241 246 253 264 275 291 296 300 300 293 282 279 258 236 211
234 232 230 208 225 234 247 258 265 273 287 289 292 292 282 281 275 271 267 261 255 251 249 251 232 231 223 223 228 235 242 244 263 272 288 295 299 302 298 289 276 249 238 221
214 222 225 231 238 239 248 262 276 280 286 290 274 269 272 282 283 283 286 265 255 250 241 244 227 215 222 224 235 236 242 238 255 266 280 291 294 302 305 296 281 261 245 231
226 189 183 198 222 235 248 269 285 286 282 267 261 228 293 307 306 316 315 295 256 240 226 235 224 221 223 226 236 240 245 236 251 260 273 286 288 299 311 303 287 273 251 239
216 225 234 245 252 254 262 280 0 10 193 246 251 218 253 293 297 299 296 290 259 223 220 229 218 223 230 231 231 232 237 234 243 252 263 279 282 297 317 313 301 283 252 239
188 200 226 236 221 200 8 189 167 248 220 294 298 230 282 308 317 286 284 278 238 207 210 222 221 229 233 237 245 231 226 228 233 240 250 265 269 287 317 324 316 290 244 243
171 156 157 131 159 181 120 202 251 270 283 256 237 255 261 280 279 280 266 255 232 210 213 221 221 230 236 238 248 217 213 216 224 231 238 255 250 267 303 334 335 315 226 223
134 122 167 189 177 213 241 328 253 222 266 260 246 250 245 292 294 355 282 267 259 219 216 219 226 236 235 237 203 201 194 206 218 234 229 241 235 242 270 323 350 324 248 234
172 116 125 182 200 155 227 262 293 283 266 283 301 291 318 316 24 25 23 7 286 229 211 227 222 225 231 200 198 196 192 205 219 232 223 229 229 229 231 257 310 337 214 241
180 128 136 296 257 259 241 272 277 241 323 283 302 272 336 322 307 34 31 26 17 192 205 207 221 220 209 194 197 187 192 208 219 225 218 219 224 225 228 227 240 249 216 208
138 112 122 106 99 160 221 310 292 283 302 257 275 269 309 322 308 284 4 34 53 30 183 207 216 187 182 188 184 186 190 198 207 213 216 220 223 222 227 229 233 239 240 236
115 97 83 106 349 319 288 306 306 284 268 298 282 294 306 293 295 312 282 37 49 56 143 182 185 188 188 181 184 188 198 207 210 216 223 230 230 224 224 228 234 238 239 246
94 77 25 4 346 304 318 314 313 282 272 276 284 309 278 304 298 318 333 282 84 75 95 130 161 182 190 187 188 195 204 210 218 224 224 231 233 233 233 233 234 241 248 247
48 69 348 321 328 300 302 305 315 302 282 275 282 293 332 245 277 300 277 213 152 88 89 95 105 143 155 192 190 194 193 198 199 215 229 220 227 233 237 247 254 254 254 259
312 319 319 293 308 304 300 171 330 324 291 284 275 303 290 272 246 280 198 192 149 119 106 98 102 117 156 182 189 198 202 225 213 226 230 238 242 246 248 259 254 255 259 259
287 295 313 296 320 261 312 277 300 296 318 310 299 299 298 263 235 230 194 190 164 156 72 75 100 116 105 119 161 177 195 212 216 222 225 229 239 238 246 248 253 271 275 274
251 256 276 286 271 290 328 58 332 352 303 325 317 317 241 273 217 191 211 200 170 140 125 97 68 64 68 67 84 107 184 230 231 238 247 253 255 252 247 244 243 246 253 261
40 238 237 264 272 270 284 267 298 324 295 309 318 320 305 144 190 165 149 164 102 90 93 88 100 74 49 355 8 16 327 303 288 276 262 254 250 251 253 254 255 255 252 252
331 304 242 250 255 265 279 278 280 291 287 312 305 285 289 310 257 152 112 160 171 124 84 89 29 21 354 311 308 303 295 291 286 281 281 279 272 262 257 256 258 260 262 262
308 297 261 228 234 259 270 310 296 271 298 314 299 272 255 304 320 245 183 121 113 113 101 224 261 285 295 289 286 282 281 284 284 280 274 271 271 270 266 265 264 265 268 270
256 297 292 273 266 268 295 312 333 297 270 285 282 274 185 268 187 158 36 24 332 262 252 274 290 291 285 281 278 277 278 277 275 277 275 276 276 277 278 278 278 275 270 267
269 310 286 301 222 251 268 285 279 267 273 263 262 252 239 232 238 184 258 265 259 273 280 280 278 277 281 285 282 280 278 278 277 277 275 273 272 272 273 276 280 282 281 280
300 309 335 41 186 203 250 264 238 250 243 253 263 259 260 268 251 245 240 261 269 280 283 281 286 288 286 284 284 283 283 283 282 280 277 276 277 278 278 279 280 281 282 285
306 276 286 292 309 256 228 216 231 242 247 273 264 249 254 251 266 253 274 275 280 280 277 281 288 288 288 290 289 289 289 288 287 287 287 286 284 284 280 278 279 282 284 281